Terminal Aerodrome Forecast
Issued by NWS

Home | Current Version | Previous Version | Text Only | Print | Product List | Glossary On
Versions: 1 2 3 4 5 6 7 8 9 10 11 12 13 14 15 16
000
FTUS41 KGYX 300526
TAFHIE
TAF
KHIE 300526Z 3006/3106 VRB03KT P6SM OVC050
     FM300900 00000KT 1/2SM FG VV002
     FM301200 00000KT P6SM BKN003
     FM301400 21005KT P6SM BKN250=

USA.gov is the U.S. government's official web portal to all federal, state and local government web resources and services.